[[{"header":{"parameterUnit":"m.s-1","parameterCategory":1,"la1":30.2991,"la2":30.254,"lo1":-89.0895,"lo2":-89.0444,"dy":0.0017,"dx":0.0017,"nx":28,"ny":28,"refTime":"2024-06-26T03:00:00:Z","depth":0,"parameterNumber":2,"parameterNumberName":"U-component_of_WINDS"},"data":[0,0,0,0,0,0,0,0,0,0,0,0,0,0,0,0,0,0,0,0,0,0,0,0,0,0,0,0,0,0,0,0,0,0,0,0,0,0,0,0,0,0,0,0,0,0,0,0,0,0,0,0,0,0,0,0,0,0,4.4353,4.4354,0,4.4478,4.4479,4.4481,4.4429,4.4426,4.4423,4.442,4.4553,4.4559,4.4565,0,0,0,0,0,0,0,0,0,0,0,0,0,4.4074,4.4079,4.4353,4.4354,4.4356,4.4478,4.448,4.4481,4.4429,4.4426,4.4422,4.4419,4.4551,4.4558,4.4566,0,0,0,0,0,0,0,0,0,0,0,0,0,4.4197,4.4081,4.4353,4.4345,4.4345,4.4477,4.448,4.4482,4.443,4.4426,4.4421,4.4417,4.4548,4.4557,4.4567,4.4716,0,0,4.4596,4.46,0,0,0,0,0,0,0,0,4.419,4.4207,4.4344,4.4345,4.4346,4.4433,4.443,4.456,4.4431,4.4398,4.442,4.4415,4.4517,4.4529,4.4562,4.4722,4.4728,4.4597,4.4603,4.4607,4.4609,0,0,0,0,0,0,0,4.4181,4.4201,4.4402,4.4346,4.4348,4.4336,4.4349,4.4454,4.4481,4.4401,4.4397,4.4412,4.4517,4.4553,4.4565,4.473,4.4596,4.4605,4.4611,4.4614,4.5019,4.5024,0,0,0,0,0,0,4.4172,4.4195,4.4399,4.4406,4.4255,4.4345,4.4359,4.441,4.448,4.4486,4.4416,4.4409,4.4539,4.4554,4.4569,4.4749,4.4607,4.4615,4.4621,4.5014,4.502,4.5026,0,0,0,0,0,0,4.4166,4.4191,4.4393,4.43,4.4324,4.4355,4.4412,4.4415,4.4451,4.4492,4.4497,4.4448,4.4536,4.4556,4.468,4.4753,4.462,4.4628,4.5008,4.5016,4.5023,4.5109,0,0,0,0,0,0,4.4159,4.4189,4.4245,4.4301,4.433,4.45,4.4417,4.442,4.4467,4.446,4.4523,4.4529,4.4534,4.4666,4.4689,4.4764,4.4636,4.5002,4.5012,4.5021,4.51,4.5119,4.5135,0,0,0,0,0,4.4149,4.4265,4.4248,4.4273,4.44,4.4505,4.4521,4.4523,4.4473,4.453,4.4557,4.4527,4.4741,4.4679,4.4705,4.4783,4.4997,4.5009,4.502,4.5092,4.5115,4.5135,0,0,0,0,0,0,4.4218,4.4272,4.4254,4.4391,4.4444,4.4496,4.4568,4.4547,4.4616,4.4606,4.4607,4.4622,4.475,4.4779,4.4709,4.4932,4.4862,4.4879,4.4908,4.493,4.4947,4.4938,4.4644,0,0,0,0,0,4.4248,4.4328,4.4371,4.4489,4.4516,4.4537,4.4583,4.458,4.4635,4.4657,4.4692,4.4748,4.4828,4.4881,4.4956,4.5104,4.5118,4.5171,4.5188,4.5202,4.5217,4.5299,4.5323,4.5063,4.5063,4.5063,0,0,4.4314,4.4353,4.4403,4.4504,4.4544,4.4627,4.4556,4.4648,4.471,4.4672,4.479,4.4818,4.4881,4.5017,4.5079,4.5045,4.5292,4.5217,4.5228,4.5235,4.5313,4.5338,4.536,4.5071,4.5069,4.5068,0,0,4.4475,4.4513,4.4614,4.4656,4.4717,4.4731,4.4756,4.4811,4.4828,4.4947,4.492,4.4995,4.5132,4.5178,4.5219,4.5399,4.5375,4.5424,4.5515,4.5595,4.5615,4.5633,4.5698,4.5722,4.5438,4.5439,4.5439,0,4.4549,4.4672,4.467,4.4764,4.4809,4.4777,4.4881,4.4922,4.5006,4.5039,4.4999,4.5171,4.5211,4.5358,4.5402,4.5436,4.5465,4.5416,4.5612,4.563,4.5647,4.5709,4.5734,4.5444,4.5443,4.5443,4.5442,0,4.476,4.4846,4.4922,4.5002,4.5056,4.5154,4.5169,4.5224,4.5216,4.5235,4.5357,4.5404,4.5488,4.5523,4.5517,4.5671,4.5648,4.561,4.554,4.5678,4.5736,4.576,4.5452,4.545,4.5448,4.5447,0,0,4.4969,4.5046,4.5074,4.511,4.5176,4.5243,4.5341,4.5423,4.5471,4.553,4.5613,4.573,4.5696,4.5743,4.5742,4.5811,4.5952,4.5766,4.5767,4.58,4.6125,4.6153,4.6181,4.5937,4.5941,4.5945,4.612,0,4.5136,4.5305,4.5307,4.5464,4.5544,4.5515,4.56,4.5651,4.5671,4.5743,4.5766,4.5849,4.5797,4.5826,4.5893,4.5921,4.6018,4.5908,4.6016,4.6019,4.6001,4.6211,4.6241,4.6405,4.6143,4.6147,4.615,0,4.5353,4.5418,4.5582,4.5637,4.5671,4.5747,4.5822,4.5891,4.5949,4.5959,4.6011,4.6,4.6102,4.6028,4.6169,4.6094,4.6139,4.6159,4.6166,4.6176,4.6093,4.6229,4.6457,4.6482,4.6186,4.6183,4.618,0,4.549,4.5618,4.5733,4.5765,4.5831,4.5886,4.5917,4.5969,4.6018,4.6085,4.6117,4.6195,4.6239,4.63,4.6311,4.6256,4.6453,4.638,4.6465,4.6465,4.6509,4.6506,4.6748,4.6536,4.6536,4.6535,4.6535,0,4.5676,4.5778,4.5795,4.5867,4.5981,4.5982,4.6095,4.6122,4.6169,4.6246,4.6226,4.6299,4.6308,4.6384,4.6394,4.651,4.6529,4.6541,4.6543,4.6544,4.6542,4.6573,4.6562,4.6542,4.654,4.6539,4.6538,0,4.5848,4.5863,4.5987,4.604,4.6055,4.6137,4.6183,4.6252,4.6269,4.6367,4.639,4.6419,4.6508,4.6525,4.663,4.6636,4.6775,4.6764,4.6755,4.6754,4.6839,4.6831,4.711,4.7147,4.691,4.6912,4.6914,0,4.5967,4.6044,4.6105,4.6154,4.6187,4.6267,4.6316,4.6321,4.6374,4.6446,4.6507,4.6593,4.6662,4.6805,4.6837,4.6918,4.6909,4.7002,4.6922,4.692,4.6912,4.6907,4.6916,4.7017,4.702,4.7022,4.7024,0,4.6175,4.6179,4.6251,4.6326,4.6386,4.6445,4.6502,4.6544,4.6557,4.6618,4.6707,4.6761,4.6867,4.6954,4.7034,4.7068,4.7049,4.7048,4.7073,4.7075,4.7066,4.7073,4.6798,4.7042,4.704,4.7039,4.7038,4.7037,4.6325,4.6393,4.6446,4.6527,4.657,4.6623,4.669,4.6716,4.6791,4.6877,4.6876,4.6974,4.7031,4.7137,4.7175,4.7254,4.7225,4.7259,4.7268,4.7277,4.7285,4.7053,4.7268,4.7268,4.7267,4.7267,4.7267,0,4.6533,4.6566,4.664,4.6719,4.6784,4.6758,4.682,4.6876,4.6962,4.7016,4.7084,4.7188,4.7272,4.731,4.7393,4.7449,4.7442,4.747,4.7467,4.7475,4.7306,4.7277,4.7474,4.7474,4.7474,4.7474,4.7474,4.7474,4.6649,4.6763,4.6773,4.6909,4.6941,4.7036,4.7074,4.7124,4.7167,4.7283,4.7352,4.7375,4.7424,4.751,4.7587,4.7596,4.7628,4.7661,4.7666,4.7508,4.7487,4.7467,4.7439,4.7667,4.7667,4.7828,4.783,4.7831]},{"header":{"parameterUnit":"m.s-1","parameterCategory":1,"la1":30.2991,"la2":30.254,"lo1":-89.0895,"lo2":-89.0444,"dy":0.0017,"dx":0.0017,"nx":28,"ny":28,"refTime":"2024-06-26T03:00:00:Z","depth":0,"parameterNumber":3,"parameterNumberName":"V-component_of_WINDS"},"data":[0,0,0,0,0,0,0,0,0,0,0,0,0,0,0,0,0,0,0,0,0,0,0,0,0,0,0,0,0,0,0,0,0,0,0,0,0,0,0,0,0,0,0,0,0,0,0,0,0,0,0,0,0,0,0,0,0,0,-0.4477,-0.4478,0,-0.4559,-0.456,-0.4561,-0.4633,-0.4634,-0.4635,-0.4636,-0.4719,-0.472,-0.4722,0,0,0,0,0,0,0,0,0,0,0,0,0,-0.4384,-0.4385,-0.4477,-0.4478,-0.4479,-0.4559,-0.456,-0.4561,-0.4633,-0.4634,-0.4635,-0.4636,-0.4718,-0.472,-0.4722,0,0,0,0,0,0,0,0,0,0,0,0,0,-0.4441,-0.4386,-0.4477,-0.4525,-0.453,-0.4559,-0.456,-0.4561,-0.4633,-0.4634,-0.4635,-0.4637,-0.4718,-0.472,-0.4722,-0.471,0,0,-0.4729,-0.4729,0,0,0,0,0,0,0,0,-0.4438,-0.4444,-0.4517,-0.4521,-0.4527,-0.4587,-0.4558,-0.4611,-0.4632,-0.4594,-0.4636,-0.4637,-0.4674,-0.468,-0.4692,-0.4714,-0.4717,-0.4729,-0.473,-0.4731,-0.4732,0,0,0,0,0,0,0,-0.4434,-0.4441,-0.451,-0.4518,-0.4524,-0.4542,-0.4552,-0.4568,-0.4626,-0.4597,-0.4603,-0.4611,-0.4677,-0.469,-0.4695,-0.4719,-0.4729,-0.4731,-0.4732,-0.4733,-0.4736,-0.4734,0,0,0,0,0,0,-0.4422,-0.4437,-0.4507,-0.4512,-0.4485,-0.4543,-0.4554,-0.4567,-0.4626,-0.4636,-0.461,-0.4614,-0.4686,-0.4692,-0.4698,-0.4688,-0.4731,-0.4733,-0.4734,-0.4737,-0.4735,-0.4734,0,0,0,0,0,0,-0.442,-0.4428,-0.4504,-0.4476,-0.4487,-0.4543,-0.4557,-0.4568,-0.4581,-0.4636,-0.4646,-0.4613,-0.4687,-0.4695,-0.4707,-0.4692,-0.4734,-0.4736,-0.4738,-0.4736,-0.4735,-0.4667,0,0,0,0,0,0,-0.4417,-0.4427,-0.4422,-0.4476,-0.4488,-0.451,-0.4556,-0.4568,-0.4584,-0.459,-0.4641,-0.465,-0.4689,-0.4703,-0.4709,-0.4695,-0.4738,-0.474,-0.4737,-0.4735,-0.4671,-0.4663,-0.4657,0,0,0,0,0,-0.4413,-0.4399,-0.4421,-0.4429,-0.4484,-0.4509,-0.4517,-0.4561,-0.4583,-0.4579,-0.4615,-0.4649,-0.4693,-0.4704,-0.4711,-0.4698,-0.4741,-0.4738,-0.4735,-0.4674,-0.4665,-0.4657,0,0,0,0,0,0,-0.4342,-0.4407,-0.4432,-0.4435,-0.4466,-0.4521,-0.4518,-0.455,-0.4575,-0.458,-0.4634,-0.4645,-0.465,-0.4676,-0.4686,-0.469,-0.4722,-0.472,-0.4673,-0.4664,-0.4657,-0.465,-0.4739,0,0,0,0,0,-0.4327,-0.4342,-0.4398,-0.4395,-0.441,-0.4461,-0.4474,-0.4505,-0.454,-0.4553,-0.4589,-0.4621,-0.4643,-0.4655,-0.4678,-0.4676,-0.4688,-0.4671,-0.4663,-0.4657,-0.4655,-0.4656,-0.4649,-0.4725,-0.4725,-0.4725,0,0,-0.4295,-0.4333,-0.4338,-0.4382,-0.441,-0.4424,-0.4471,-0.4484,-0.4496,-0.4555,-0.4568,-0.4596,-0.4635,-0.464,-0.4644,-0.4661,-0.4637,-0.4654,-0.4649,-0.465,-0.4653,-0.4646,-0.4639,-0.4723,-0.4723,-0.4724,0,0,-0.4244,-0.4274,-0.4275,-0.4302,-0.4344,-0.4379,-0.4379,-0.443,-0.4451,-0.4465,-0.451,-0.4525,-0.456,-0.4587,-0.4605,-0.4566,-0.4599,-0.4572,-0.4534,-0.4535,-0.4529,-0.4524,-0.451,-0.4504,-0.457,-0.457,-0.457,0,-0.4199,-0.4222,-0.4272,-0.4282,-0.43,-0.4356,-0.4357,-0.4382,-0.4428,-0.4439,-0.4459,-0.4505,-0.4535,-0.4547,-0.4538,-0.4551,-0.4553,-0.4566,-0.4526,-0.4521,-0.4517,-0.4504,-0.4499,-0.4566,-0.4567,-0.4567,-0.4567,0,-0.4165,-0.418,-0.4176,-0.4221,-0.4239,-0.4244,-0.4295,-0.4308,-0.4339,-0.4371,-0.4386,-0.4425,-0.4456,-0.4462,-0.4492,-0.4479,-0.4488,-0.4516,-0.4548,-0.4506,-0.4494,-0.449,-0.4561,-0.4563,-0.4564,-0.4564,0,0,-0.4068,-0.4142,-0.4139,-0.416,-0.4212,-0.4225,-0.4234,-0.4266,-0.4275,-0.4306,-0.4315,-0.4345,-0.4371,-0.4392,-0.4426,-0.4427,-0.4394,-0.4455,-0.4457,-0.4441,-0.4381,-0.4359,-0.4352,-0.4416,-0.4416,-0.4415,-0.4378,0,-0.4025,-0.4044,-0.409,-0.4095,-0.411,-0.4165,-0.4173,-0.4206,-0.4237,-0.4255,-0.429,-0.431,-0.4344,-0.4357,-0.436,-0.4397,-0.4382,-0.44,-0.4425,-0.4425,-0.4411,-0.4346,-0.4322,-0.4285,-0.4373,-0.4373,-0.4372,0,-0.3976,-0.4004,-0.4011,-0.4063,-0.4071,-0.4077,-0.411,-0.4127,-0.4166,-0.4189,-0.4212,-0.4251,-0.4264,-0.4295,-0.4315,-0.4326,-0.4339,-0.4359,-0.4359,-0.4361,-0.4394,-0.4346,-0.4274,-0.4267,-0.4366,-0.4366,-0.4367,0,-0.3904,-0.3944,-0.3954,-0.397,-0.4031,-0.4034,-0.406,-0.41,-0.4116,-0.4145,-0.4157,-0.4187,-0.4203,-0.4226,-0.4272,-0.4291,-0.4286,-0.4321,-0.4305,-0.4304,-0.43,-0.4299,-0.4227,-0.4311,-0.4311,-0.4311,-0.4311,0,-0.385,-0.3851,-0.3922,-0.3927,-0.3931,-0.3985,-0.3987,-0.4018,-0.4054,-0.4066,-0.4116,-0.4127,-0.4187,-0.4205,-0.4242,-0.4252,-0.4259,-0.4278,-0.4287,-0.4273,-0.427,-0.428,-0.4284,-0.431,-0.431,-0.431,-0.431,0,-0.3769,-0.3816,-0.383,-0.3887,-0.3901,-0.3902,-0.3951,-0.3958,-0.3994,-0.401,-0.4016,-0.4072,-0.4096,-0.4145,-0.4182,-0.4206,-0.4208,-0.4225,-0.4195,-0.42,-0.4181,-0.4181,-0.4112,-0.4105,-0.4194,-0.4193,-0.4192,0,-0.373,-0.3733,-0.379,-0.3803,-0.3826,-0.3845,-0.3863,-0.3917,-0.3933,-0.3978,-0.398,-0.4009,-0.4034,-0.407,-0.4113,-0.4143,-0.416,-0.4134,-0.4165,-0.415,-0.4159,-0.4157,-0.4158,-0.4126,-0.4125,-0.4124,-0.4123,0,-0.3656,-0.368,-0.3703,-0.3734,-0.3754,-0.3782,-0.3812,-0.3819,-0.388,-0.3896,-0.3921,-0.3941,-0.398,-0.4007,-0.4043,-0.407,-0.4106,-0.4114,-0.4112,-0.4095,-0.4077,-0.4086,-0.4174,-0.4115,-0.4115,-0.4116,-0.4117,-0.4117,-0.3594,-0.3599,-0.3641,-0.3665,-0.3694,-0.3722,-0.3732,-0.3769,-0.3792,-0.3827,-0.3858,-0.3881,-0.3922,-0.3974,-0.3999,-0.4018,-0.4035,-0.4032,-0.4031,-0.4029,-0.4022,-0.4076,-0.4025,-0.4025,-0.4025,-0.4025,-0.4026,0,-0.3522,-0.3552,-0.3574,-0.3615,-0.3634,-0.3669,-0.3705,-0.3718,-0.3738,-0.3773,-0.3797,-0.3827,-0.3854,-0.3901,-0.3932,-0.3938,-0.3956,-0.3945,-0.3944,-0.3949,-0.4005,-0.4003,-0.393,-0.393,-0.393,-0.393,-0.393,-0.393,-0.3486,-0.3497,-0.3526,-0.3551,-0.3582,-0.3605,-0.3622,-0.3648,-0.3676,-0.3707,-0.373,-0.3761,-0.3801,-0.3836,-0.3863,-0.3876,-0.3885,-0.3868,-0.3886,-0.3936,-0.3945,-0.3954,-0.3953,-0.3869,-0.3869,-0.3829,-0.3828,-0.3828]}]]